METEOR-M2 3

Last updated on Sun Oct 06 2024 00:02:18 GMT+0000 (Coordinated Universal Time)

1 57166U 23091A 24279.50759801 .00000308 00000+0 15330-3 0 9994 2 57166 98.7005 333.1286 0004381 156.1908 203.9474 14.23933174 66321
UTC large
Height (km)
Speed (km/s)
/
Latitude / Longitude
Inclination (degrees)
Orbital Period (minutes)
Azimuth
Elevation
Range (km)
Doppler Factor

Next 0 passes for location: London (51.5072 / 0.1276)

Sorry there are no passes over London.